Starlink 5663

operational
NORAD ID: 55347 Int'l Des: 2023-013 Owner: SPXS Country: US Constellation: starlink
LEOCIRCULAR

Über Starlink 5663

Beschreibung wird geladen...

Live-Position

3D-Globus wird geladen...

Nächste Überflüge

Höhenverlauf

Altitude vs Time

uPlot chart will show altitude changes over time

Zweizeiliger Elementsatz

1 55347U 23013S 25306.20472771 -.00000145 00000-0 43486-5 0 9990
2 55347 43.0052 272.9381 0001345 265.9934 94.0755 15.02532066152539
Epoch: 2. Nov. 2025 • Age: 29 hours

Aktueller Status

Höhe 563.1 km
Geschwindigkeit 7.59 km/s
Subsatellitenpunkt 42.73°N, 153.52°E
Startdatum 26. Jan. 2023
Alter 2.7 years
Typ internet

Technische Details

Klassifizierung Payload
Masse 305.00 kg
Trockenmasse 290.00 kg
Gesamtmasse 305.00 kg
Länge 0.20 m
Durchmesser 2.80 m
Spannweite 9.00 m
Form Box + pan
Hersteller SPXS
Bus-Typ Starlink
Phasenstatus In Orbit
Besitzer/Staat SPXS/US

Große Konstellationen

Loading constellations...